Weather reports worldwide

Advertisment
Winston Salem, nc, United States of America (2072822): temperature & dewpoint: 20.03.2019 15:00:00 - 26.03.2019 15:00:00 (EDT)Winston Salem, nc, United States of America (2072822): wind speed & gusts: 20.03.2019 15:00:00 - 26.03.2019 15:00:00 (EDT)Winston Salem, nc, United States of America (2072822): wind direction: 20.03.2019 15:00:00 - 26.03.2019 15:00:00 (EDT)Winston Salem, nc, United States of America (2072822): reduced air pressure: 20.03.2019 15:00:00 - 26.03.2019 15:00:00 (EDT)Winston Salem, nc, United States of America (2072822): visibility: 20.03.2019 15:00:00 - 26.03.2019 15:00:00 (EDT)Winston Salem, nc, United States of America (2072822): precipitation: 20.03.2019 15:00:00 - 26.03.2019 15:00:00 (EDT)
Date & Time tt [°C] td [°C] ff [km/h] ff [kn] fx [km/h] fx [kn] dd ppp [hPa] vv [km] rr [mm]
26.03.2019 15:00:00 13,3 -1,7 16 9 - - N 1022,1 16 -
26.03.2019 14:00:00 12,2 -2,2 16 9 - - NNE 1022,5 16 -
26.03.2019 13:00:00 10,6 -4,4 22 12 - - NE 1022,8 16 -
26.03.2019 12:00:00 10,0 -3,3 26 14 - - NE 1022,8 16 -
26.03.2019 11:00:00 9,4 0,0 28 15 - - ENE 1022,3 16 -
26.03.2019 10:00:00 8,3 2,8 29 16 - - NE 1021,5 16 -
26.03.2019 09:00:00 7,8 3,9 22 12 - - ENE 1020,7 16 -
26.03.2019 08:00:00 8,3 6,1 16 9 - - NE 1019,2 15 -
26.03.2019 07:00:00 8,3 6,7 13 7 - - NE 1017,9 16 -
26.03.2019 06:00:00 8,9 7,8 13 7 - - NNE 1016,8 11 0,3
26.03.2019 05:00:00 9,4 7,8 13 7 - - N 1016,0 16 -
26.03.2019 04:00:00 9,4 8,3 11 6 - - NNE 1015,6 16 0,0
26.03.2019 03:00:00 10,6 8,3 18 10 - - NE 1015,2 16 -
26.03.2019 02:00:00 11,1 8,9 16 9 - - NE 1014,5 16 -
26.03.2019 01:00:00 11,7 11,1 11 6 - - NNE 1014,4 10 -
26.03.2019 00:00:00 11,7 11,1 9 5 - - NNE 1013,6 10 -
25.03.2019 23:00:00 11,7 11,1 0 0 - - N 1013,5 10 -
25.03.2019 22:00:00 12,2 11,7 5 3 - - SE 1013,7 8 0,0
25.03.2019 21:00:00 12,2 11,7 8 4 - - NNE 1013,0 4,8 1,0
25.03.2019 20:00:00 12,8 11,7 0 0 - - N 1013,7 11 1,3
25.03.2019 19:00:00 13,3 11,1 5 3 - - W 1013,7 4,8 1,3
25.03.2019 18:00:00 14,4 11,7 8 4 - - WNW 1013,4 11 1,0
25.03.2019 17:00:00 15,0 11,1 8 4 - - W 1013,6 10 0,5
25.03.2019 16:00:00 16,7 9,4 13 7 - - WNW 1013,5 16 0,5
25.03.2019 15:00:00 19,4 7,8 13 7 - - W 1013,5 16 0,0
25.03.2019 14:00:00 19,4 8,9 13 7 - - SSW 1013,5 16 -
25.03.2019 13:00:00 18,9 10,6 13 7 - - S 1014,6 16 -
25.03.2019 12:00:00 16,7 10,6 9 5 - - S 1015,1 16 -
25.03.2019 11:00:00 14,4 10,6 9 5 - - - 1016,3 16 -
25.03.2019 10:00:00 13,9 10,6 8 4 - - - 1016,8 16 -
25.03.2019 09:00:00 12,8 9,4 9 5 - - SSW 1017,0 16 -
25.03.2019 08:00:00 12,2 8,3 9 5 - - - 1017,1 16 -
25.03.2019 07:00:00 12,2 7,8 9 5 - - SSW 1017,0 16 -
25.03.2019 06:00:00 12,2 6,7 8 4 - - S 1017,2 16 -
25.03.2019 05:00:00 12,2 5,0 5 3 - - S 1017,5 16 -
25.03.2019 04:00:00 13,3 3,3 8 4 - - S 1018,1 16 -
25.03.2019 03:00:00 13,3 2,8 5 3 - - S 1018,6 16 -
25.03.2019 02:00:00 13,9 2,8 5 3 - - S 1018,9 16 -
25.03.2019 01:00:00 15,6 3,3 9 5 - - S 1019,2 16 -
25.03.2019 00:00:00 16,7 3,3 5 3 - - - 1019,5 16 -
24.03.2019 23:00:00 17,2 3,3 8 4 - - SSW 1020,0 16 -
24.03.2019 22:00:00 17,2 3,9 8 4 - - - 1020,1 16 -
24.03.2019 21:00:00 17,8 3,3 9 5 - - S 1020,0 16 -
24.03.2019 20:00:00 18,9 2,8 11 6 - - SSW 1020,0 16 -
24.03.2019 19:00:00 19,4 2,8 16 9 - - SW 1020,5 16 -
24.03.2019 18:00:00 20,0 2,2 18 10 - - SSW 1020,4 16 -
24.03.2019 17:00:00 20,6 1,7 22 12 - - SSW 1020,6 16 -
24.03.2019 16:00:00 20,6 2,2 11 6 - - - 1021,2 16 -
24.03.2019 15:00:00 20,0 0,6 22 12 - - WSW 1022,2 16 -
24.03.2019 14:00:00 19,4 0,6 15 8 - - SSW 1023,8 16 -
24.03.2019 13:00:00 18,3 -2,2 13 7 - - WSW 1025,0 16 -
24.03.2019 12:00:00 16,7 -3,3 16 9 - - SW 1025,8 16 -
24.03.2019 11:00:00 14,4 -4,4 8 4 - - - 1026,5 16 -
24.03.2019 10:00:00 11,7 -5,0 8 4 - - - 1026,5 16 -
24.03.2019 09:00:00 7,8 -4,4 0 0 - - N 1026,7 16 -
24.03.2019 08:00:00 3,9 -6,1 5 3 - - N 1026,7 16 -
24.03.2019 07:00:00 4,4 -7,2 0 0 - - N 1025,9 16 -
24.03.2019 06:00:00 2,8 -5,6 0 0 - - N 1025,8 16 -
24.03.2019 05:00:00 4,4 -4,4 0 0 - - N 1025,4 16 -
24.03.2019 04:00:00 5,0 -5,0 0 0 - - N 1025,5 16 -
24.03.2019 03:00:00 3,3 -6,1 0 0 - - N 1025,9 16 -
24.03.2019 02:00:00 3,9 -6,1 0 0 - - N 1026,1 16 -
24.03.2019 01:00:00 5,0 -6,1 0 0 - - N 1026,0 16 -
24.03.2019 00:00:00 6,7 -5,6 0 0 - - N 1025,9 16 -
23.03.2019 23:00:00 8,3 -7,2 0 0 - - N 1025,4 16 -
23.03.2019 22:00:00 11,1 -9,4 9 5 - - NNW 1025,2 16 -
23.03.2019 21:00:00 10,6 -9,4 9 5 - - N 1024,8 16 -
23.03.2019 20:00:00 15,0 -12,2 8 4 - - NW 1024,1 16 -
23.03.2019 19:00:00 16,7 -13,3 13 7 - - WNW 1023,3 16 -
23.03.2019 18:00:00 16,7 -12,2 11 6 - - WNW 1022,8 16 -
23.03.2019 17:00:00 16,7 -10,6 8 4 - - - 1022,7 16 -
23.03.2019 16:00:00 16,7 -9,4 15 8 - - NW 1022,9 16 -
23.03.2019 15:00:00 15,0 -10,6 16 9 - - WNW 1023,3 16 -
23.03.2019 14:00:00 13,9 -10,0 9 5 - - NNW 1024,1 16 -
23.03.2019 13:00:00 13,3 -9,4 18 10 - - NNW 1024,3 16 -
23.03.2019 12:00:00 11,1 -8,3 15 8 - - W 1024,7 16 -
23.03.2019 11:00:00 10,0 -8,3 15 8 - - W 1024,5 16 -
23.03.2019 10:00:00 8,3 -7,2 15 8 - - WNW 1023,6 16 -
23.03.2019 09:00:00 7,2 -6,1 11 6 - - WNW 1023,0 16 -
23.03.2019 08:00:00 5,0 -5,6 11 6 - - WNW 1021,8 16 -
23.03.2019 07:00:00 5,0 -6,1 0 0 - - N 1020,7 16 -
23.03.2019 06:00:00 5,0 -5,6 9 5 - - WNW 1019,4 16 -
23.03.2019 05:00:00 4,4 -5,6 0 0 - - N 1018,3 16 -
23.03.2019 04:00:00 5,6 -6,1 5 3 - - W 1017,7 16 -
23.03.2019 03:00:00 6,7 -6,1 9 5 - - NW 1017,4 16 -
23.03.2019 02:00:00 7,2 -6,1 16 9 - - NNW 1017,1 16 -
23.03.2019 01:00:00 8,3 -6,1 21 11 - - NNW 1016,8 16 -
23.03.2019 00:00:00 8,9 -5,6 21 11 - - NNW 1016,8 16 -
22.03.2019 23:00:00 9,4 -3,3 21 11 - - NW 1016,2 16 -
22.03.2019 22:00:00 8,9 -1,7 13 7 - - N 1015,2 16 -
22.03.2019 21:00:00 11,7 -3,9 21 11 - - N 1013,6 16 -
22.03.2019 20:00:00 13,3 -5,0 29 16 59 32 NNW 1011,4 16 -
22.03.2019 19:00:00 15,0 -2,8 34 18 48 26 NNW 1009,8 16 -
22.03.2019 18:00:00 16,1 -2,8 35 19 50 27 W 1008,3 16 -
22.03.2019 17:00:00 16,1 -3,3 28 15 59 32 W 1007,5 16 -
22.03.2019 16:00:00 16,7 -4,4 22 12 52 28 W 1007,3 16 -
22.03.2019 15:00:00 16,1 -3,3 21 11 48 26 W 1007,7 16 -
22.03.2019 14:00:00 14,4 -2,2 16 9 - - WNW 1008,5 16 -
22.03.2019 13:00:00 13,3 -1,7 16 9 - - W 1009,5 16 -
22.03.2019 12:00:00 12,2 -1,7 26 14 - - WNW 1010,2 16 -
22.03.2019 11:00:00 10,6 -2,2 21 11 - - WNW 1010,6 16 -
22.03.2019 10:00:00 8,9 -2,2 21 11 - - WNW 1010,7 16 -
22.03.2019 09:00:00 8,3 -1,7 24 13 - - NW 1010,6 16 -
22.03.2019 08:00:00 7,8 -1,1 9 5 - - W 1010,3 16 -
22.03.2019 07:00:00 7,8 0,0 13 7 - - WNW 1009,6 16 -
22.03.2019 06:00:00 6,7 1,1 9 5 - - - 1009,3 16 -
22.03.2019 05:00:00 5,6 1,1 5 3 - - W 1009,0 16 -
22.03.2019 04:00:00 6,1 1,1 5 3 - - WSW 1009,1 16 -
22.03.2019 03:00:00 7,2 0,6 11 6 - - W 1009,3 16 -
22.03.2019 02:00:00 7,2 0,6 11 6 - - W 1009,4 16 -
22.03.2019 01:00:00 7,8 1,1 13 7 - - WNW 1009,2 16 -
22.03.2019 00:00:00 8,3 1,1 16 9 - - WNW 1009,2 16 -
21.03.2019 23:00:00 8,9 1,7 15 8 - - W 1008,9 16 -
21.03.2019 22:00:00 9,4 2,2 11 6 - - WNW 1008,9 16 -
21.03.2019 21:00:00 10,0 2,8 13 7 - - WNW 1008,9 16 -
21.03.2019 20:00:00 10,6 4,4 9 5 - - W 1008,3 16 0,0
21.03.2019 19:00:00 10,6 5,6 16 9 - - NW 1008,2 16 0,0
21.03.2019 18:00:00 13,3 2,8 22 12 - - W 1007,5 16 -
21.03.2019 17:00:00 13,9 2,2 18 10 - - W 1007,2 16 -
21.03.2019 16:00:00 13,9 2,2 21 11 - - W 1007,5 16 -
21.03.2019 15:00:00 14,4 0,6 16 9 - - WNW 1007,7 16 -
21.03.2019 14:00:00 14,4 2,8 11 6 - - WSW 1008,7 16 -
21.03.2019 13:00:00 13,3 5,6 11 6 - - - 1009,8 16 -
21.03.2019 12:00:00 11,7 6,7 5 3 - - - 1010,9 16 -
21.03.2019 11:00:00 11,1 7,2 13 7 - - NNE 1011,8 16 -
21.03.2019 10:00:00 8,3 6,7 15 8 - - N 1012,1 16 -
21.03.2019 09:00:00 7,2 6,1 15 8 - - N 1012,5 16 0,3
21.03.2019 08:00:00 6,7 5,6 13 7 - - NNW 1012,5 16 0,3
21.03.2019 07:00:00 5,6 5,0 16 9 - - NNE 1013,0 10 1,0
21.03.2019 06:00:00 5,6 5,0 15 8 - - NNE 1013,8 15 0,3
21.03.2019 05:00:00 5,0 4,4 16 9 - - N 1014,5 6 0,0
21.03.2019 04:00:00 5,0 4,4 15 8 - - N 1015,4 8 0,3
21.03.2019 03:00:00 5,0 4,4 15 8 - - NNE 1016,6 10 0,0
21.03.2019 02:00:00 5,6 4,4 15 8 - - N 1017,3 11 1,0
21.03.2019 01:00:00 5,6 4,4 13 7 - - NNE 1018,5 6 0,5
21.03.2019 00:00:00 6,1 4,4 9 5 - - ENE 1019,3 13 0,0
20.03.2019 23:00:00 7,8 3,3 15 8 - - ESE 1020,2 11 0,3
20.03.2019 22:00:00 10,6 -1,1 9 5 - - E 1020,7 16 -
20.03.2019 21:00:00 11,1 -2,8 8 4 - - E 1020,6 16 -
20.03.2019 20:00:00 11,7 -3,9 11 6 - - E 1020,4 16 -
20.03.2019 19:00:00 12,8 -3,3 13 7 - - E 1020,6 16 -
20.03.2019 18:00:00 13,3 -3,3 15 8 - - E 1020,9 16 -
20.03.2019 17:00:00 15,0 -3,9 13 7 - - E 1021,1 16 -
20.03.2019 16:00:00 13,9 -5,0 8 4 - - - 1021,5 16 -
20.03.2019 15:00:00 13,3 -5,0 5 3 - - - 1022,7 16 -

tt = temperature
td = dewpoint
ff = wind speed
fx = gusts
dd = wind direction
ppp = reduced air pressure
vv = visibility
rr = precipitation

Next stations